Location: Saint Louis
(38.6272°N, 90.1978°W)
Time: 00:59:49
(UTC-05:00)

ISS - Pass Details

Date: 13 September 2013
Orbit: 402 x 404 km, 51.6° (Epoch: 27 May)

Event Time Altitude Azimuth Distance (km) Brightness Sun altitude
Rises 14:15:01 0° 299° (WNW) 2,322 0.6 51.0°
Reaches altitude 10° 14:17:17 10° 286° (WNW) 1,462 -0.2 50.7°
Maximum altitude 14:20:06 27° 227° (SW) 821 -0.4 50.4°
Drops below altitude 10° 14:22:56 10° 167° (SSE) 1,463 0.0 50.1°
Enters shadow 14:51:58 -58° 133° (SE) 11,313 3.6 46.5°
Exits shadow 15:26:04 -55° 330° (NNW) 10,932 3.5 41.5°
